• In Hungary
  • List of Countries
  • For 7 days
  • Water Temperature
  • Satellite Maps
  • Weather Map
  • News
  • Weather Widgets
  • user-avatar
    Login

    Hourly Weather Botogol

    Today, 18 October, Wednesday

    Time Temperature Precipitation Wind Pressure Humidity
    00:00 -3°C° 0 mm 1 mps 624 mmHg 83%
    01:00 -4°C° 0 mm 1 mps 623 mmHg 84%
    02:00 -4°C° 0 mm 1 mps 623 mmHg 84%
    03:00 -4°C° 0 mm 1 mps 623 mmHg 84%
    04:00 -6°C° 0 mm 1 mps 623 mmHg 84%
    05:00 -6°C° 0 mm 1 mps 623 mmHg 84%
    06:00 -6°C° 0 mm 1 mps 623 mmHg 83%
    07:00 -6°C° 0 mm 1 mps 623 mmHg 84%
    08:00 -3°C° 0 mm 1 mps 623 mmHg 79%
    09:00 -1°C° 0 mm 1 mps 624 mmHg 75%
    10:00 0°C° 0 mm 1 mps 624 mmHg 70%
    11:00 +1°C° 0 mm 1 mps 624 mmHg 68%
    12:00 +2°C° 0 mm 1 mps 624 mmHg 66%
    13:00 +3°C° 0 mm 1 mps 624 mmHg 63%
    14:00 +3°C° 0 mm 1 mps 623 mmHg 65%
    15:00 +2°C° 0 mm 1 mps 623 mmHg 68%
    16:00 +2°C° 0 mm 1 mps 622 mmHg 70%
    17:00 +1°C° 0 mm 1 mps 622 mmHg 72%
    18:00 -1°C° 0 mm 1 mps 622 mmHg 75%
    19:00 -4°C° 0 mm 2 mps 621 mmHg 77%
    20:00 -4°C° 0 mm 2 mps 621 mmHg 77%
    21:00 -5°C° 0 mm 2 mps 621 mmHg 77%
    22:00 -5°C° 0 mm 2 mps 621 mmHg 76%
    23:00 -5°C° 0 mm 2 mps 620 mmHg 76%

    Tomorrow, 19 October, Thursday

    Time Temperature Precipitation Wind Pressure Humidity
    00:00 -5°C° 0 mm 2 mps 620 mmHg 75%
    01:00 -5°C° 0 mm 2 mps 620 mmHg 74%
    02:00 -5°C° 0 mm 2 mps 620 mmHg 73%
    03:00 -3°C° 0 mm 1 mps 619 mmHg 72%
    04:00 -3°C° 0 mm 1 mps 619 mmHg 71%
    05:00 -3°C° 0 mm 1 mps 619 mmHg 70%
    06:00 -3°C° 0 mm 1 mps 619 mmHg 70%
    07:00 -3°C° 0 mm 1 mps 619 mmHg 70%
    08:00 -2°C° 0 mm 1 mps 620 mmHg 67%
    09:00 0°C° 0 mm 1 mps 621 mmHg 64%
    10:00 +2°C° 0 mm 1 mps 621 mmHg 61%
    11:00 +3°C° 0 mm 1 mps 621 mmHg 61%
    12:00 +3°C° 0 mm 1 mps 622 mmHg 61%
    13:00 +4°C° 0 mm 1 mps 622 mmHg 61%
    14:00 +4°C° 0 mm 1 mps 622 mmHg 64%
    15:00 +3°C° 0 mm 1 mps 622 mmHg 66%
    16:00 +3°C° 0 mm 1 mps 621 mmHg 69%
    17:00 +1°C° 0 mm 1 mps 622 mmHg 73%
    18:00 0°C° 0 mm 1 mps 622 mmHg 76%
    19:00 -1°C° 0 mm 1 mps 622 mmHg 79%
    20:00 -1°C° 0 mm 1 mps 622 mmHg 79%
    21:00 -2°C° 0 mm 1 mps 622 mmHg 80%
    22:00 -2°C° 0 mm 1 mps 622 mmHg 80%
    23:00 -2°C° 0 mm 1 mps 622 mmHg 80%

    Day after tomorrow, 20 October, Friday

    Time Temperature Precipitation Wind Pressure Humidity
    00:00 -2°C° 0 mm 1 mps 622 mmHg 80%
    01:00 -3°C° 0 mm 1 mps 622 mmHg 80%
    02:00 -3°C° 0 mm 1 mps 622 mmHg 80%
    03:00 -3°C° 0 mm 1 mps 622 mmHg 79%
    04:00 -3°C° 0 mm 1 mps 621 mmHg 78%
    05:00 -3°C° 0 mm 1 mps 621 mmHg 76%
    06:00 -3°C° 0 mm 1 mps 621 mmHg 75%
    07:00 -3°C° 0 mm 1 mps 621 mmHg 73%
    08:00 -2°C° 0 mm 1 mps 622 mmHg 69%
    09:00 0°C° 0 mm 1 mps 622 mmHg 65%
    10:00 +2°C° 0 mm 1 mps 622 mmHg 61%
    11:00 +1°C° 0 mm 2 mps 622 mmHg 60%
    12:00 +2°C° 0 mm 2 mps 622 mmHg 59%
    13:00 +3°C° 0 mm 2 mps 622 mmHg 58%
    14:00 +4°C° 0 mm 1 mps 621 mmHg 63%
    15:00 +3°C° 0 mm 1 mps 621 mmHg 67%
    16:00 +2°C° 0 mm 1 mps 621 mmHg 72%
    17:00 +2°C° 0.1 mm 1 mps 621 mmHg 75%
    18:00 +1°C° 0.1 mm 1 mps 621 mmHg 79%
    19:00 0°C° 0.1 mm 1 mps 621 mmHg 82%
    20:00 0°C° 0.1 mm 1 mps 622 mmHg 84%
    21:00 0°C° 0.1 mm 1 mps 622 mmHg 85%
    22:00 0°C° 0.1 mm 1 mps 622 mmHg 87%
    23:00 0°C° 0.2 mm 1 mps 622 mmHg 88%

    21 October, Saturday

    Time Temperature Precipitation Wind Pressure Humidity
    00:00 0°C° 0.2 mm 1 mps 622 mmHg 89%
    01:00 0°C° 0.2 mm 1 mps 623 mmHg 90%
    02:00 -1°C° 0.1 mm 1 mps 623 mmHg 90%
    03:00 -1°C° 0.1 mm 1 mps 623 mmHg 91%
    04:00 -2°C° 0.1 mm 1 mps 623 mmHg 91%
    05:00 -2°C° 0 mm 1 mps 623 mmHg 90%
    06:00 -2°C° 0 mm 1 mps 623 mmHg 90%
    07:00 -5°C° 0 mm 2 mps 623 mmHg 89%
    08:00 -4°C° 0 mm 2 mps 624 mmHg 83%
    09:00 -2°C° 0 mm 2 mps 624 mmHg 78%
    10:00 -1°C° 0 mm 2 mps 624 mmHg 72%
    11:00 +1°C° 0 mm 2 mps 624 mmHg 67%
    12:00 +2°C° 0 mm 2 mps 624 mmHg 61%
    13:00 +1°C° 0 mm 3 mps 624 mmHg 55%
    14:00 +1°C° 0 mm 3 mps 623 mmHg 57%
    15:00 +2°C° 0 mm 2 mps 623 mmHg 59%
    16:00 +1°C° 0 mm 2 mps 623 mmHg 61%
    17:00 -1°C° 0 mm 2 mps 623 mmHg 63%
    18:00 -2°C° 0 mm 3 mps 623 mmHg 66%
    19:00 -4°C° 0 mm 3 mps 623 mmHg 68%
    20:00 -4°C° 0 mm 3 mps 623 mmHg 68%
    21:00 -5°C° 0 mm 3 mps 623 mmHg 67%
    22:00 -5°C° 0 mm 3 mps 623 mmHg 67%
    23:00 -4°C° 0 mm 3 mps 623 mmHg 66%

    22 October, Sunday

    Time Temperature Precipitation Wind Pressure Humidity
    00:00 -4°C° 0 mm 3 mps 623 mmHg 66%
    01:00 -4°C° 0 mm 3 mps 623 mmHg 65%
    02:00 -4°C° 0 mm 3 mps 622 mmHg 66%
    03:00 -4°C° 0 mm 3 mps 622 mmHg 66%
    04:00 -3°C° 0 mm 2 mps 622 mmHg 67%
    05:00 -3°C° 0 mm 2 mps 622 mmHg 67%
    06:00 -3°C° 0 mm 2 mps 622 mmHg 67%
    07:00 -3°C° 0 mm 2 mps 623 mmHg 66%
    08:00 -2°C° 0 mm 2 mps 623 mmHg 64%
    09:00 +1°C° 0 mm 2 mps 623 mmHg 62%
    10:00 +2°C° 0 mm 2 mps 623 mmHg 60%
    11:00 +3°C° 0 mm 2 mps 623 mmHg 60%
    12:00 +4°C° 0 mm 2 mps 623 mmHg 60%
    13:00 +5°C° 0 mm 2 mps 623 mmHg 60%
    14:00 +4°C° 0 mm 2 mps 622 mmHg 62%
    15:00 +4°C° 0 mm 2 mps 622 mmHg 63%
    16:00 +3°C° 0 mm 2 mps 621 mmHg 65%
    17:00 +2°C° 0 mm 2 mps 621 mmHg 65%
    18:00 +1°C° 0 mm 2 mps 621 mmHg 66%
    19:00 -1°C° 0 mm 2 mps 621 mmHg 67%
    20:00 -1°C° 0 mm 2 mps 621 mmHg 66%
    21:00 -2°C° 0 mm 2 mps 621 mmHg 65%
    22:00 -2°C° 0 mm 2 mps 621 mmHg 63%
    23:00 -2°C° 0 mm 2 mps 621 mmHg 62%

    23 October, Monday

    Time Temperature Precipitation Wind Pressure Humidity
    00:00 -2°C° 0 mm 2 mps 621 mmHg 61%
    01:00 -2°C° 0 mm 2 mps 620 mmHg 60%
    02:00 -3°C° 0 mm 2 mps 620 mmHg 59%
    03:00 -3°C° 0 mm 2 mps 620 mmHg 58%
    04:00 -3°C° 0 mm 2 mps 620 mmHg 56%
    05:00 -3°C° 0 mm 2 mps 620 mmHg 56%
    06:00 -3°C° 0 mm 2 mps 621 mmHg 55%
    07:00 -1°C° 0 mm 1 mps 621 mmHg 54%
    08:00 +1°C° 0 mm 1 mps 621 mmHg 52%
    09:00 +2°C° 0 mm 1 mps 622 mmHg 51%
    10:00 +4°C° 0 mm 1 mps 622 mmHg 50%
    11:00 +5°C° 0 mm 1 mps 622 mmHg 51%
    12:00 +6°C° 0 mm 1 mps 622 mmHg 51%
    13:00 +6°C° 0 mm 1 mps 622 mmHg 52%
    14:00 +6°C° 0 mm 1 mps 622 mmHg 53%
    15:00 +5°C° 0 mm 1 mps 622 mmHg 53%
    16:00 +4°C° 0 mm 1 mps 621 mmHg 54%
    17:00 +3°C° 0 mm 1 mps 621 mmHg 54%
    18:00 +2°C° 0 mm 1 mps 622 mmHg 55%
    19:00 +1°C° 0 mm 1 mps 622 mmHg 55%
    20:00 +1°C° 0 mm 1 mps 622 mmHg 55%
    21:00 0°C° 0 mm 1 mps 622 mmHg 55%
    22:00 0°C° 0 mm 1 mps 622 mmHg 55%
    23:00 0°C° 0 mm 1 mps 622 mmHg 55%
    Show more